Dewpoint
60 60 60 60 59 57 53 54 50 47 47 48 48 47 47 47 45 44 43 44 43 43 43 44 45 46 46 46 45 44 43 42 43 43 45 45 44 43
59 58 58 58 57 55 53 54 52 49 47 48 46 47 45 41 42 42 41 43 42 41 42 42 42 43 44 44 45 45 44 43 43 43 43 43 42 41
57 56 55 55 54 53 53 53 50 50 48 47 47 43 42 41 37 40 41 39 39 40 40 39 39 40 41 41 42 42 42 42 42 42 42 42 43 43
55 55 55 54 53 53 53 52 50 49 48 46 42 40 40 41 40 40 37 35 38 40 38 38 38 38 39 39 39 39 40 40 40 40 39 39 40 41
56 55 54 53 52 53 52 50 50 46 44 43 41 42 40 38 38 39 39 40 36 38 34 34 34 35 35 36 37 38 36 36 37 38 38 39 39 39
56 54 53 53 51 50 47 46 45 43 43 41 40 37 37 37 37 36 37 37 35 29 29 27 29 30 32 34 34 35 36 37 36 36 36 36 38 39
50 48 46 47 44 45 45 45 43 40 39 38 35 33 33 34 34 35 32 30 29 26 23 21 24 25 28 33 32 34 34 34 35 34 34 34 34 37
39 37 36 36 35 34 34 33 34 34 34 33 32 33 34 33 31 27 24 22 18 20 22 23 23 23 24 26 29 33 34 34 34 34 34 34 34 34
35 34 33 32 31 29 29 28 28 27 27 31 32 30 27 24 23 23 21 20 20 21 23 23 25 23 23 21 30 32 33 33 33 34 34 33 33 34
32 32 31 31 30 30 26 23 23 24 26 22 25 24 24 24 23 22 23 24 24 23 24 26 24 24 25 24 30 32 32 32 32 33 33 33 33 34
30 30 30 29 28 27 26 26 25 24 25 26 25 19 19 20 21 21 21 20 23 17 19 19 19 20 22 24 25 29 31 32 32 32 33 33 34 34
23 24 26 24 26 27 25 22 22 21 21 18 17 18 19 18 22 21 18 20 18 18 20 22 20 19 19 20 22 26 26 29 32 32 32 32 34 32
24 23 23 25 26 27 27 27 26 24 22 20 17 15 15 16 16 16 18 20 20 16 15 17 17 17 17 16 17 19 21 25 30 30 32 33 33 32
27 28 26 25 24 24 24 23 20 20 22 22 22 21 21 21 18 17 17 18 18 18 18 20 21 17 18 17 15 15 20 25 31 30 30 32 34 33
27 24 21 21 21 25 20 21 21 23 23 22 22 20 20 18 17 19 19 17 17 16 12 16 17 16 16 16 15 17 19 20 27 32 31 32 30 31
25 24 24 24 24 24 23 25 25 21 19 18 19 17 16 17 17 15 15 14 14 14 12 14 14 14 15 14 14 16 16 22 25 30 31 31 29 28
25 24 23 21 19 19 19 19 19 18 16 19 17 15 14 13 14 13 13 12 12 11 11 10 10 11 12 12 14 13 15 18 25 27 31 28 28 28
21 21 21 21 19 16 16 16 16 15 16 12 13 12 12 13 11 10 9 11 12 9 8 8 8 11 10 12 16 15 20 24 29 28 30 27 27 27
18 17 18 17 16 13 13 12 12 12 12 10 10 11 11 10 11 9 10 10 10 8 7 7 8 9 8 12 11 16 19 22 21 29 30 28 27 25
11 12 12 12 10 9 8 8 9 9 9 8 8 9 9 8 7 7 7 9 8 6 6 5 7 7 11 12 13 16 15 20 21 25 29 29 27 26
7 6 9 8 7 6 9 9 9 9 8 7 7 7 8 7 6 6 7 7 7 5 5 4 5 9 9 12 14 16 20 18 24 25 31 29 26 25
8 5 6 6 7 7 8 8 7 7 6 5 6 6 7 7 6 6 6 6 5 6 5 4 4 6 7 8 10 14 14 19 23 29 31 28 26 24
7 6 7 7 7 7 5 6 5 6 4 4 4 5 6 5 5 6 7 6 5 5 5 5 5 5 6 7 11 12 14 17 20 28 28 26 26 26
Lifted_Index
0 0 0 0 1 1 1 2 2 3 3 3 3 3 4 5 5 6 6 7 8 9 10 11 11 12 11 11 11 11 11 11 10 9 9 8 8 8
1 1 1 1 1 1 1 2 3 3 3 3 3 3 4 5 5 6 7 8 9 10 11 11 11 12 12 12 12 11 11 11 10 10 9 9 8 8
2 2 2 2 1 1 2 2 3 3 3 3 4 4 4 5 6 7 8 8 10 11 11 11 12 12 12 13 13 12 12 12 11 11 10 10 9 9
3 3 2 2 1 1 2 2 3 3 3 3 4 5 5 5 6 7 8 9 10 11 11 11 12 12 13 13 13 13 13 13 13 12 12 11 10 10
2 2 2 1 1 1 1 2 2 3 3 3 4 5 5 6 6 7 8 9 11 11 11 11 12 13 14 14 15 15 14 14 14 13 13 12 11 11
1 1 1 1 1 1 1 2 2 3 3 4 5 5 5 6 7 8 9 10 12 13 13 13 14 15 15 16 16 15 15 15 14 14 13 13 12 11
1 1 1 1 2 2 2 3 3 4 4 5 5 5 6 7 9 10 11 12 13 14 15 15 16 16 16 16 16 15 15 15 15 14 14 13 12 12
1 1 2 2 3 3 4 5 6 6 6 6 6 7 8 10 11 12 13 14 15 16 16 16 16 16 16 16 15 15 15 15 15 14 14 13 12 12
2 2 3 5 6 6 7 7 8 9 9 9 9 10 11 13 14 15 16 16 17 17 17 17 16 16 16 16 15 15 15 15 14 14 13 13 12 11
4 5 6 8 9 9 9 9 9 11 12 13 14 14 16 17 17 18 18 18 18 18 17 17 17 16 16 16 15 15 15 14 14 13 12 12 11 11
7 8 9 10 11 11 10 10 11 12 14 16 17 18 19 19 19 20 19 19 18 17 17 17 17 17 16 16 15 14 14 13 12 12 11 11 10 10
9 10 11 11 12 12 12 12 13 14 16 17 19 20 20 20 20 21 20 19 18 17 18 18 18 17 17 16 15 14 13 12 11 10 10 10 9 8
10 11 12 13 14 14 15 15 16 17 18 19 19 20 21 21 22 22 21 20 19 19 19 19 18 17 16 15 14 13 12 11 10 9 9 8 8 7
12 13 15 15 16 17 18 18 19 20 20 20 20 21 22 22 23 23 23 23 22 21 21 20 19 17 16 15 13 13 12 11 9 8 7 7 7 7
15 16 17 18 19 20 21 21 22 22 22 22 22 23 23 24 24 24 24 24 23 22 21 20 18 17 16 15 13 13 12 10 8 7 6 6 6 6
18 19 19 20 21 22 23 23 24 24 24 24 24 25 25 25 25 24 24 23 22 21 19 18 17 17 16 15 14 13 11 10 8 6 5 5 5 5
20 20 21 22 22 23 24 25 25 25 25 26 26 26 26 25 24 24 23 22 21 19 18 17 16 16 15 14 13 12 11 9 7 5 4 4 3 3
22 22 22 23 24 25 25 26 26 26 27 27 27 27 26 25 24 23 22 21 20 18 17 16 15 15 14 13 12 11 10 8 6 5 3 2 2 2
23 24 24 25 26 27 27 27 28 28 28 28 27 27 26 24 23 22 21 20 19 18 17 15 14 14 13 12 11 10 9 8 6 3 2 1 1 1
26 26 27 28 28 29 29 29 29 29 28 28 27 26 25 24 22 21 20 19 18 17 15 14 13 13 12 12 11 10 9 8 5 3 1 1 1 1
27 28 29 30 30 30 30 30 29 28 27 26 25 24 23 22 21 20 18 17 16 15 14 13 13 12 12 11 10 9 8 7 5 2 1 1 1 1
28 29 30 30 31 30 29 28 27 26 25 24 23 22 21 20 19 17 16 15 14 13 13 12 12 12 11 11 10 8 6 5 4 2 1 1 2 2
29 30 30 30 30 29 28 27 25 24 24 23 22 20 19 18 17 16 15 14 13 13 12 12 12 11 11 11 9 8 6 4 3 2 2 2 2 2